Regional Weather Roundup
Issued by NWS

Home | Current Version | Previous Version | Graphics & Text | Print | Product List | Glossary On
Versions: 1 2 3 4 5 6 7 8 9 10 11 12 13 14 15 16 17 18 19 20 21 22 23 24 25 26 27 28 29 30 31 32 33 34 35 36 37 38 39 40 41 42 43 44 45 46 47 48 49 50
000
ASUS43 KLMK 152202
RWRKY
KENTUCKY REGIONAL WEATHER ROUNDUP
NATIONAL WEATHER SERVICE LOUISVILLE KY
600 PM EDT MON SEP 15 2014

NOTE "FAIR" INDICATES FEW OR NO CLOUDS BELOW 12,000 FEET
WITH NO SIGNIFICANT WEATHER AND/OR OBSTRUCTIONS TO VISIBILITY.

KYZ001>023-026-027-061>063-070>075-152300-
WESTERN AND SOUTH CENTRAL KENTUCKY

CITY           SKY/WX    TMP DP  RH WIND       PRES   REMARKS
PADUCAH        CLOUDY    77  61  57 SW6       30.06F
HENDERSON      CLOUDY    75  55  50 S6        30.06F
OWENSBORO      PTSUNNY   76  58  53 S9        30.08S
HOPKINSVILLE   CLOUDY    73  62  67 S5        30.10F
BOWLING GREEN  CLOUDY    75  57  53 S3        30.10F
GLASGOW        CLOUDY    73  60  63 CALM      30.12F
$$

KYZ024-025-028>034-038-045-046-053-152300-
NORTH CENTRAL KENTUCKY

CITY           SKY/WX    TMP DP  RH WIND       PRES   REMARKS
LOUISVILLE/SDF CLOUDY    72  55  55 NE9       30.10F
LOUISVILLE/LOU CLOUDY    71  55  56 NE8       30.11F
FORT KNOX      CLOUDY    71  59  67 N6        30.10F
$$

KYZ035>037-039>044-047>052-055>060-089>105-152300-
NORTHEAST KENTUCKY

CITY           SKY/WX    TMP DP  RH WIND       PRES   REMARKS
LEXINGTON      CLOUDY    73  55  53 NW7       30.13F
COVINGTON      LGT RAIN  62  55  77 S7G20     30.07F
FRANKFORT      CLOUDY    71  52  50 NW6       30.14
$$

KYZ054-064>069-076>088-106>120-152300-
SOUTHEAST KENTUCKY

CITY           SKY/WX    TMP DP  RH WIND       PRES   REMARKS
JACKSON        CLOUDY    71  59  65 CALM      30.14F
LONDON         CLOUDY    73  60  63 W5        30.15F
SOMERSET       NOT AVBL
MIDDLESBORO    DRIZZLE   72  65  77 CALM      30.15S
MONTICELLO     CLOUDY    71  60  68 CALM      30.16S
$$



USA.gov is the U.S. government's official web portal to all federal, state and local government web resources and services.